リニア-スキッフ彗星

371P/LINEAR-Skiff (2018)

English version
Home page
Updated on May 20, 2019

---------------------------------------------------------------------

・ プロフィール

符号 371P/2018 R1
検出日 2018年9月7日
検出光度 19.8等
検出者 E. Schwab (Egelsbach, Germany), D. Abreu (European Space Agency's Optical Ground Station, Tenerife)

・ 写真集

・ 軌道要素

Epoch 2018 Oct. 9.0 TT = JDT 2458400.5
T 2018 Oct. 4.58968 TT                                  MPCW
q   2.1910624            (2000.0)            P               Q
n   0.11528542     Peri.  308.47950     +0.92916907     -0.24631395
a   4.1810607      Node    67.33522     +0.35568747     +0.79877864
e   0.4759554      Incl.   17.37963     -0.10065420     +0.54889172
P   8.55
From 150 observations 2001 Aug. 19-2018 Dec. 28, mean residual 0".6.

・ 光度変化

        m1 = 12.0 + 5 logΔ + 20.0 log r

---------------------------------------------------------------------

軌道要素はM.P.E.C. 2019-J142に掲載されたものです。
光度グラフはComet for Windowsで作成したものです。

---------------------------------------------------------------------

Copyright(C) Seiichi Yoshida (comet@aerith.net). All rights reserved.